Location: Val-d'Or
(48.1170°N, 77.7670°W)
Time: 11:05:55
(UTC-04:00)

ISS - Pass Details

Date: 02 July 2019
Orbit: 409 x 418 km, 51.6° (Epoch: 18 July)

Event Time Altitude Azimuth Distance (km) Brightness Sun altitude
Exits shadow 03:35:07 10° 161° (SSE) 1,505 -1.3 -12.2°
Reaches altitude 10° 03:35:19 10° 158° (SSE) 1,471 -1.3 -12.2°
Maximum altitude 03:36:37 12° 134° (SE) 1,364 -1.3 -12.1°
Drops below altitude 10° 03:37:57 10° 110° (ESE) 1,481 -0.8 -12.0°
Sets 03:41:04 0° 78° (ENE) 2,339 0.8 -11.7°
